Regional Weather Roundup
Issued by NWS Green Bay, WI

Home | Current Version | Previous Version | Text Only | Print | Product List | Glossary On
Versions: 1 2 3 4 5 6 7 8 9 10 11 12 13 14 15 16 17 18 19 20 21 22 23 24 25 26 27 28 29 30 31 32 33 34 35 36 37 38 39 40 41 42 43 44 45 46 47 48 49 50
000
ASUS43 KGRB 200111
RWRGRB

NORTH-CENTRAL AND NORTHEAST WISCONSIN REGIONAL WEATHER ROUNDUP
NATIONAL WEATHER SERVICE GREEN BAY WI
700 PM CST SUN NOV 19 2017

WIZ005-009-010>012-018-019-200200-
NORTH CENTRAL WISCONSIN

CITY           SKY/WX    TMP DP  RH WIND       PRES   REMARKS
IRONWOOD       CLOUDY   N/A N/A N/A CALM      29.86S
MANITOWISH WTR CLOUDY    19  18  95 CALM      29.84S
ARBOR VITAE    CLOUDY    23  17  78 CALM      29.84S
EAGLE RIVER    CLOUDY    21  17  83 CALM      29.84S
LAND O LAKES   CLOUDY    20  18  90 CALM      29.85S
RHINELANDER    CLOUDY   N/A N/A N/A SW6       29.86S
PHILLIPS       MOCLDY    26  16  65 SW6       29.85S
ANTIGO         CLOUDY    26  16  65 W7        29.87F
TOMAHAWK       CLOUDY    25  15  65 CALM      29.87F
MERRILL        CLOUDY    27  16  63 SW5       29.88F
$$

WIZ013-073-200200-
NORTHEAST WISCONSIN

CITY           SKY/WX    TMP DP  RH WIND       PRES   REMARKS
IRON MOUNTAIN  CLOUDY    24  12  60 W5        29.85S
MARINETTE      CLOUDY    28  14  55 W7        29.92S
OCONTO         CLOUDY    28  13  53 SW5       29.93S
$$

WIZ017-030-035>037-045-200200-
CENTRAL WISCONSIN

CITY           SKY/WX    TMP DP  RH WIND       PRES   REMARKS
MEDFORD        CLEAR     22  16  77 S3        29.87F
WAUSAU         CLOUDY    27  15  61 SW7       29.89F
MOSINEE        MOCLDY    25  16  68 SW5       29.91
MARSHFIELD     CLEAR     23  14  68 SW7       29.89F
WISC RAPIDS    CLEAR     25  15  66 SW5       29.93F
STEVENS POINT  PTCLDY    26  14  59 SW5       29.92F
WAUPACA        CLOUDY    29  17  60 S5        29.95S
SHAWANO        CLOUDY    31  14  50 CALM      29.92F
CLINTONVILLE   CLOUDY    28  16  59 SW7       29.93F
WAUTOMA        CLEAR     27  16  63 S5        29.96S
$$

WIZ038-039-048-051-200200-
FOX VALLEY

CITY           SKY/WX    TMP DP  RH WIND       PRES   REMARKS
NWS GREEN BAY  CLOUDY    29  19  66 SW5       29.94F
APPLETON       PTCLDY    28  12  50 SW6       29.93F
OSHKOSH        CLOUDY    28  17  63 SW6       29.96S
FOND DU LAC    MOCLDY    28  17  63 SW7       29.97S
$$

WIZ022-050-052-200200-
EAST CENTRAL WISCONSIN

CITY           SKY/WX    TMP DP  RH WIND       PRES   REMARKS
EPHRAIM        CLOUDY    29  11  47 W8G17     29.90R
WASHINGTON ISL CLOUDY    29  12  49 W13       29.90S
STURGEON BAY   CLOUDY    30  14  51 W9        29.93S
MANITOWOC      CLOUDY    30  16  56 W6        29.96F
SHEBOYGAN      CLOUDY    28  16  60 SW6       29.97S
$$

LMZ563-521-522-541>543-200200-
LAKESHORE

STATION/POSITION TIME  TEMP    WIND        PRES    VSBY  WAVE
                       AIR SEA DIR/SP/G                  HT/PER
                 (UTC) (F)     (DEG/KT/KT) (MB)    (MI)  (FT/S)
SHEBOYGAN LKSHOR 0100   30     220/  8/ 10 1015.8S
KEWAUNEE LKSHORE 0048   29     240/  5/  8 1013.3R
NORTHPORT PIER   0040   30     280/  4/ 12 1012.9R
N MID LAKE BUOY  0050   31 48  260/ 16/ 19 1013.5S         3/ 4
MENOMINEE LKSHOR 0048   28     210/  7/ 10 1013.0S
$$




USA.gov is the U.S. government's official web portal to all federal, state and local government web resources and services.